N9MAN Weather Reports


time (UTC)temp
C
wind
direction
speed
KPH
gust
KPH
rain 1hr
cm
rain 24hr
cm
rain mn
cm
humidity
%
barometer
mb
20260906064817 22 91 3.2 3.2 0.00 0.00 0.00 91 1016.2
20260906064313 22 26 3.2 3.2 0.00 0.00 0.00 91 1016.2
20260906063813 22 74 1.6 1.6 0.00 0.00 0.00 91 1016.3
20260906063308 22 113 4.8 4.8 0.00 0.00 0.00 92 1016.2
20260906062803 22 45 1.6 1.6 0.00 0.00 0.00 92 1016.2
20260906062305 22 32 4.8 4.8 0.00 0.00 0.00 92 1016.3
20260906061758 22 102 1.6 3.2 0.00 0.00 0.00 92 1016.3
20260906061254 22 142 0.0 0.0 0.00 0.00 0.00 92 1016.3
20260906060749 23 139 0.0 1.6 0.00 0.00 0.00 92 1016.3
20260906060247 23 103 1.6 1.6 0.00 0.00 0.00 91 1015.9
20260906055742 23 114 1.6 1.6 0.00 0.00 0.00 91 1016.2
20260906055237 23 51 3.2 3.2 0.00 0.00 0.00 91 1016.1
20260906054733 23 66 1.6 1.6 0.00 0.00 0.00 91 1015.6
20260906054228 23 132 0.0 0.0 0.00 0.00 0.00 91 1015.9
20260906053724 23 85 1.6 1.6 0.00 0.00 0.00 91 1015.7
20260906053220 23 157 0.0 0.0 0.00 0.00 0.00 90 1015.8
20260906052715 23 42 1.6 3.2 0.00 0.00 0.00 90 1015.8
20260906052211 23 90 1.6 1.6 0.00 0.00 0.00 90 1015.8
20260906051708 23 27 1.6 3.2 0.00 0.00 0.00 91 1015.6
20260906051207 24 121 0.0 1.6 0.00 0.00 0.00 90 1015.9
20260906050703 24 64 3.2 3.2 0.00 0.00 0.00 90 1016.1
20260906050157 24 125 1.6 1.6 0.00 0.00 0.00 90 1015.8
20260906045656 24 52 3.2 3.2 0.00 0.00 0.00 90 1015.7
20260906045151 24 112 1.6 1.6 0.00 0.00 0.00 90 1015.8
20260906044647 24 113 1.6 1.6 0.00 0.00 0.00 90 1015.8
20260906044142 23 52 3.2 3.2 0.00 0.00 0.00 90 1015.6
20260906043638 23 127 0.0 1.6 0.00 0.00 0.00 91 1015.7
20260906043134 23 37 1.6 3.2 0.00 0.00 0.00 91 1015.6
20260906042633 23 133 0.0 0.0 0.00 0.00 0.00 90 1015.6
20260906042127 24 129 0.0 0.0 0.00 0.00 0.00 90 1015.6
20260906041623 24 116 0.0 1.6 0.00 0.00 0.00 89 1015.7
20260906041118 24 74 3.2 3.2 0.00 0.00 0.00 89 1015.5
20260906040614 24 40 1.6 3.2 0.00 0.00 0.00 89 1015.6
20260906040109 24 92 0.0 0.0 0.00 0.00 0.00 89 1015.6
20260906035604 24 26 3.2 3.2 0.00 0.00 0.00 89 1015.5
20260906035100 24 4 3.2 4.8 0.00 0.00 0.00 88 1015.6
20260906034600 24 99 1.6 1.6 0.00 0.00 0.00 88 1015.7
20260906034054 25 107 1.6 1.6 0.00 0.00 0.00 88 1015.5
20260906033550 25 92 3.2 4.8 0.00 0.00 0.00 87 1015.4
20260906033045 25 38 1.6 3.2 0.00 0.00 0.00 88 1015.3
20260906032542 25 96 1.6 1.6 0.00 0.00 0.00 87 1015.3
20260906032036 25 74 3.2 4.8 0.00 0.00 0.00 87 1015.3
20260906031532 25 98 1.6 1.6 0.00 0.00 0.00 87 1015.4
20260906031027 25 134 1.6 3.2 0.00 0.00 0.00 87 1015.4
20260906030526 25 96 1.6 1.6 0.00 0.00 0.00 87 1015.2
20260906030026 25 93 3.2 3.2 0.00 0.00 0.00 86 1015.3
20260906025526 25 139 1.6 1.6 0.00 0.00 0.00 87 1015.1
20260906025024 25 97 1.6 1.6 0.00 0.00 0.00 86 1015.3
20260906024520 26 53 3.2 4.8 0.00 0.00 0.00 86 1015.3
20260906024020 26 93 1.6 1.6 0.00 0.00 0.00 86 1015.4
20260906023516 26 39 6.4 6.4 0.00 0.00 0.00 85 1015.2
20260906023011 26 103 4.8 4.8 0.00 0.00 0.00 84 1014.9
20260906022506 26 50 1.6 3.2 0.00 0.00 0.00 83 1015.0
20260906022001 26 92 4.8 4.8 0.00 0.00 0.00 82 1014.9
20260906021455 26 59 3.2 3.2 0.00 0.00 0.00 82 1014.9
20260906020950 26 56 3.2 3.2 0.00 0.00 0.00 82 1014.8
20260906020445 26 33 6.4 11.3 0.00 0.00 0.00 83 1014.7
20260906015944 26 134 0.0 0.0 0.00 0.00 0.00 84 1014.8
20260906015444 25 225 1.6 1.6 0.00 0.00 0.00 87 1014.6
20260906014944 25 119 1.6 1.6 0.00 0.00 0.00 87 1014.4
20260906014438 25 125 0.0 1.6 0.00 0.00 0.00 87 1014.5
20260906013934 25 111 1.6 1.6 0.00 0.00 0.00 86 1014.4
20260906013429 25 139 0.0 0.0 0.00 0.00 0.00 87 1014.3
20260906012925 25 144 0.0 0.0 0.00 0.00 0.00 86 1014.2
20260906012425 26 158 0.0 0.0 0.00 0.00 0.00 85 1014.1
20260906011924 26 158 0.0 0.0 0.00 0.00 0.00 85 1014.0
20260906011420 26 145 0.0 0.0 0.00 0.00 0.00 85 1013.8
20260906010915 26 147 0.0 0.0 0.00 0.00 0.00 84 1014.1
20260906010411 26 147 0.0 0.0 0.00 0.00 0.00 84 1013.9
20260906005906 26 142 0.0 0.0 0.00 0.00 0.00 83 1013.8
20260906005406 26 133 0.0 1.6 0.00 0.00 0.00 82 1013.8
20260906004904 26 129 0.0 0.0 0.00 0.00 0.00 81 1013.6
20260906004359 26 108 1.6 1.6 0.00 0.00 0.00 80 1013.6
20260906003854 27 137 0.0 0.0 0.00 0.00 0.00 80 1013.6
20260906003349 27 137 0.0 0.0 0.00 0.00 0.00 78 1013.5
20260906002845 27 148 0.0 0.0 0.00 0.00 0.00 76 1013.3
20260906002344 27 143 0.0 0.0 0.00 0.00 0.00 75 1013.2
20260906001840 27 125 1.6 1.6 0.00 0.00 0.00 75 1013.5
20260906001336 28 93 1.6 3.2 0.00 0.00 0.00 74 1013.3
20260906000831 28 44 1.6 3.2 0.00 0.00 0.00 74 1013.3
20260906000326 28 141 0.0 0.0 0.00 0.00 0.00 74 1013.4
20260905235825 28 24 6.4 6.4 0.00 0.00 0.00 73 1013.3
20260905235320 28 119 0.0 0.0 0.00 0.00 0.00 74 1013.4
20260905234815 28 64 1.6 1.6 0.00 0.00 0.00 74 1013.6
20260905234311 28 30 1.6 3.2 0.00 0.00 0.00 75 1013.6
20260905233811 27 129 0.0 0.0 0.00 0.00 0.00 80 1013.4
20260905233306 28 140 0.0 0.0 0.00 0.00 0.00 79 1013.3
20260905232805 28 153 0.0 0.0 0.00 0.00 0.00 77 1013.5
20260905232301 28 153 0.0 0.0 0.00 0.00 0.00 77 1013.5
20260905231757 28 154 0.0 0.0 0.00 0.00 0.00 78 1013.4
20260905231252 28 150 0.0 0.0 0.00 0.00 0.00 78 1013.4
20260905230748 28 170 0.0 0.0 0.00 0.00 0.00 76 1013.4
20260905230245 28 150 0.0 0.0 0.00 0.00 0.00 76 1013.4
20260905225745 28 147 0.0 0.0 0.00 0.00 0.00 76 1013.2
20260905225241 28 130 0.0 1.6 0.00 0.00 0.00 76 1013.2
20260905224739 28 153 0.0 0.0 0.00 0.00 0.00 75 1013.3
20260905224236 28 125 1.6 1.6 0.00 0.00 0.00 75 1013.0
20260905223731 29 158 0.0 0.0 0.00 0.00 0.00 74 1012.8
20260905223228 29 134 0.0 0.0 0.00 0.00 0.00 73 1013.1
20260905222724 30 176 0.0 0.0 0.00 0.00 0.00 71 1013.1
20260905222222 29 185 1.6 3.2 0.00 0.00 0.00 70 1013.3
20260905221719 29 154 0.0 0.0 0.00 0.00 0.00 68 1013.4
20260905221215 29 158 0.0 0.0 0.00 0.00 0.00 67 1013.5
20260905220711 29 170 0.0 0.0 0.00 0.00 0.00 71 1013.4
20260905220207 29 164 0.0 0.0 0.00 0.00 0.00 71 1013.0
20260905215706 29 162 0.0 0.0 0.00 0.00 0.00 74 1012.5
20260905215202 29 331 1.6 3.2 0.00 0.00 0.00 75 1012.8
20260905214658 29 125 0.0 0.0 0.00 0.00 0.00 75 1012.8
20260905214153 28 148 0.0 0.0 0.00 0.00 0.00 78 1013.1
20260905213648 28 138 0.0 0.0 0.00 0.00 0.00 80 1013.3
20260905213144 29 138 0.0 0.0 0.00 0.00 0.00 78 1013.3
20260905212639 29 138 0.0 0.0 0.00 0.00 0.00 76 1013.3
20260905212138 30 134 0.0 0.0 0.00 0.00 0.00 79 1012.9
20260905211633 30 134 0.0 0.0 0.00 0.00 0.00 74 1013.0
20260905211128 30 134 0.0 0.0 0.00 0.00 0.00 73 1013.3
20260905210625 30 134 0.0 0.0 0.00 0.00 0.00 72 1012.8
20260905210119 30 134 0.0 0.0 0.00 0.00 0.00 70 1013.3
20260905205618 30 132 0.0 0.0 0.00 0.00 0.00 70 1013.2
20260905205118 31 129 0.0 0.0 0.00 0.00 0.00 70 1013.3
20260905204618 31 146 0.0 0.0 0.00 0.00 0.00 67 1013.3
20260905204114 31 156 0.0 0.0 0.00 0.00 0.00 66 1013.4
20260905203613 32 149 0.0 0.0 0.00 0.00 0.00 66 1013.6
20260905203109 32 152 0.0 0.0 0.00 0.00 0.00 63 1013.3
20260905202604 32 188 1.6 3.2 0.00 0.00 0.00 63 1013.5
20260905202059 32 167 1.6 3.2 0.00 0.00 0.00 63 1013.5
20260905201555 32 133 0.0 1.6 0.00 0.00 0.00 62 1013.7
20260905201054 32 160 0.0 1.6 0.00 0.00 0.00 61 1013.7
20260905200550 32 215 3.2 3.2 0.00 0.00 0.00 60 1013.6
20260905200044 32 163 0.0 0.0 0.00 0.00 0.00 64 1013.6
20260905195538 33 197 1.6 1.6 0.00 0.00 0.00 63 1013.5
20260905195034 33 135 0.0 0.0 0.00 0.00 0.00 60 1013.6
20260905194533 34 212 1.6 1.6 0.00 0.00 0.00 57 1013.5
20260905194033 35 194 1.6 1.6 0.00 0.00 0.00 56 1013.5
20260905193527 34 174 0.0 0.0 0.00 0.00 0.00 57 1013.7
20260905193023 35 163 1.6 1.6 0.00 0.00 0.00 55 1014.0
20260905192518 35 200 1.6 1.6 0.00 0.00 0.00 55 1013.9
20260905192015 34 199 0.0 1.6 0.00 0.00 0.00 57 1013.9
20260905191513 35 179 1.6 1.6 0.00 0.00 0.00 54 1013.9
20260905191012 33 163 0.0 1.6 0.00 0.00 0.00 56 1014.0
20260905190510 34 325 1.6 1.6 0.00 0.00 0.00 58 1014.0
20260905190010 34 163 1.6 3.2 0.00 0.00 0.00 55 1014.3
20260905185504 33 200 0.0 1.6 0.00 0.00 0.00 55 1014.2
20260905185003 33 187 4.8 4.8 0.00 0.00 0.00 56 1014.4
20260905184458 34 195 1.6 1.6 0.00 0.00 0.00 54 1014.3
20260905183957 33 229 0.0 0.0 0.00 0.00 0.00 56 1014.5
20260905183457 33 189 0.0 0.0 0.00 0.00 0.00 56 1014.8
20260905182951 33 173 1.6 1.6 0.00 0.00 0.00 55 1014.6
20260905182451 33 184 1.6 3.2 0.00 0.00 0.00 55 1014.6
20260905181946 33 223 3.2 3.2 0.00 0.00 0.00 55 1014.9
20260905181447 33 235 3.2 3.2 0.00 0.00 0.00 55 1015.0
20260905180946 33 187 0.0 1.6 0.00 0.00 0.00 57 1014.7
20260905180441 33 206 3.2 3.2 0.00 0.00 0.00 55 1014.9
20260905175936 33 163 1.6 1.6 0.00 0.00 0.00 56 1015.0
20260905175435 32 240 3.2 3.2 0.00 0.00 0.00 56 1014.9
20260905174931 32 238 1.6 1.6 0.00 0.00 0.00 57 1015.1
20260905174426 33 200 1.6 1.6 0.00 0.00 0.00 55 1015.0
20260905173922 32 169 1.6 1.6 0.00 0.00 0.00 57 1015.2
20260905173419 32 144 0.0 0.0 0.00 0.00 0.00 57 1015.0
20260905172919 32 186 3.2 4.8 0.00 0.00 0.00 55 1015.2
20260905172416 32 176 1.6 1.6 0.00 0.00 0.00 59 1015.4
20260905171912 32 223 1.6 1.6 0.00 0.00 0.00 57 1015.3
20260905171409 31 74 0.0 1.6 0.00 0.00 0.00 57 1015.3
20260905170905 32 152 1.6 1.6 0.00 0.00 0.00 56 1015.5
20260905170401 31 159 0.0 0.0 0.00 0.00 0.00 58 1015.5
20260905165900 31 214 3.2 3.2 0.00 0.00 0.00 58 1015.8
20260905165356 31 184 1.6 1.6 0.00 0.00 0.00 59 1015.6
20260905164856 30 183 0.0 1.6 0.00 0.00 0.00 62 1015.7
20260905164351 30 193 1.6 3.2 0.00 0.00 0.00 60 1015.8
20260905163846 30 166 3.2 4.8 0.00 0.00 0.00 61 1015.8
20260905163343 30 206 3.2 4.8 0.00 0.00 0.00 60 1015.8
20260905162839 30 167 1.6 1.6 0.00 0.00 0.00 63 1016.1
20260905162338 30 152 1.6 1.6 0.00 0.00 0.00 60 1015.9
20260905161832 30 188 0.0 1.6 0.00 0.00 0.00 63 1016.1
20260905161332 30 209 1.6 3.2 0.00 0.00 0.00 60 1016.2
20260905160830 30 185 0.0 0.0 0.00 0.00 0.00 63 1015.9
20260905160325 30 165 0.0 0.0 0.00 0.00 0.00 61 1015.9
20260905155319 28 194 3.2 3.2 0.00 0.00 0.00 63 1015.9
20260905154813 28 161 0.0 0.0 0.00 0.00 0.00 64 1015.9
20260905154308 28 174 1.6 1.6 0.00 0.00 0.00 65 1015.8
20260905153804 28 221 3.2 3.2 0.00 0.00 0.00 66 1015.8
20260905153301 27 176 0.0 1.6 0.00 0.00 0.00 66 1015.8
20260905152800 27 135 3.2 3.2 0.00 0.00 0.00 66 1016.1
20260905152259 27 183 1.6 1.6 0.00 0.00 0.00 68 1016.1
20260905151800 27 213 4.8 4.8 0.00 0.00 0.00 68 1016.2
20260905151256 27 230 4.8 4.8 0.00 0.00 0.00 69 1016.2
20260905150755 26 202 1.6 1.6 0.00 0.00 0.00 71 1016.3
20260905150255 26 180 3.2 4.8 0.00 0.00 0.00 70 1016.3
20260905145753 26 166 1.6 3.2 0.00 0.00 0.00 70 1016.4
20260905145247 26 151 0.0 0.0 0.00 0.00 0.00 71 1016.3
20260905144746 26 187 1.6 3.2 0.00 0.00 0.00 71 1016.3
20260905144242 26 206 3.2 3.2 0.00 0.00 0.00 72 1016.3
20260905143741 25 177 0.0 0.0 0.00 0.00 0.00 72 1016.3
20260905143241 25 165 0.0 0.0 0.00 0.00 0.00 73 1016.4
20260905142739 25 205 1.6 3.2 0.00 0.00 0.00 73 1016.5
20260905142234 25 231 3.2 3.2 0.00 0.00 0.00 73 1016.5
20260905141730 25 153 0.0 0.0 0.00 0.00 0.00 73 1016.6
20260905141226 25 115 1.6 3.2 0.00 0.00 0.00 75 1016.4
20260905140721 25 186 3.2 4.8 0.00 0.00 0.00 74 1016.3
20260905140215 25 135 0.0 1.6 0.00 0.00 0.00 74 1016.6
20260905135715 25 216 3.2 4.8 0.00 0.00 0.00 74 1016.4
20260905135211 24 175 1.6 3.2 0.00 0.00 0.00 75 1016.5
20260905134710 24 158 0.0 0.0 0.00 0.00 0.00 77 1016.7
20260905134210 24 173 0.0 0.0 0.00 0.00 0.00 77 1016.5
20260905133705 24 164 1.6 1.6 0.00 0.00 0.00 77 1016.7
20260905133200 23 161 0.0 0.0 0.00 0.00 0.00 77 1016.7
20260905132658 23 169 0.0 0.0 0.00 0.00 0.00 78 1016.5
20260905132154 23 166 1.6 1.6 0.00 0.00 0.00 78 1016.7
20260905131649 23 138 0.0 0.0 0.00 0.00 0.00 78 1016.7
20260905131150 23 192 1.6 1.6 0.00 0.00 0.00 79 1016.7
20260905130644 23 184 0.0 0.0 0.00 0.00 0.00 79 1017.0
20260905130144 23 212 6.4 9.7 0.00 0.00 0.00 79 1016.8
20260905125638 23 195 1.6 1.6 0.00 0.00 0.00 80 1016.7
20260905125134 23 187 4.8 4.8 0.00 0.00 0.00 80 1016.9
20260905124631 23 183 1.6 1.6 0.00 0.00 0.00 80 1016.6
20260905124126 23 165 1.6 1.6 0.00 0.00 0.00 81 1016.5
20260905123621 23 217 3.2 3.2 0.00 0.00 0.00 81 1016.6
20260905123119 23 171 0.0 1.6 0.00 0.00 0.00 81 1016.5
20260905122618 23 154 0.0 0.0 0.00 0.00 0.00 83 1016.5
20260905122119 23 170 0.0 0.0 0.00 0.00 0.00 82 1016.5
20260905121613 22 128 0.0 1.6 0.00 0.00 0.00 83 1016.8
20260905121108 22 146 0.0 0.0 0.00 0.00 0.00 82 1016.7
20260905120608 22 166 0.0 0.0 0.00 0.00 0.00 82 1016.7
20260905115601 22 122 0.0 0.0 0.00 0.00 0.00 84 1016.6
20260905115057 22 201 1.6 1.6 0.00 0.00 0.00 83 1016.5
20260905114556 22 146 0.0 0.0 0.00 0.00 0.00 83 1016.4
20260905114055 23 119 1.6 1.6 0.00 0.00 0.00 82 1016.4
20260905113550 23 144 4.8 6.4 0.00 0.00 0.00 83 1015.9
20260905113045 23 52 3.2 4.8 0.00 0.00 0.00 84 1016.3
20260905112541 23 77 0.0 1.6 0.00 0.00 0.00 83 1016.2
20260905112036 23 96 0.0 1.6 0.00 0.00 0.00 83 1016.1
20260905111531 23 113 1.6 1.6 0.00 0.00 0.00 84 1016.1
20260905111030 23 127 3.2 3.2 0.00 0.00 0.00 84 1015.8
20260905110530 23 91 3.2 3.2 0.00 0.00 0.00 93 1015.9
20260905110025 23 106 3.2 4.8 0.00 0.00 0.00 99 1015.6
20260905105525 23 43 3.2 3.2 0.00 0.00 0.00 99 1015.5
20260905105024 23 111 0.0 0.0 0.00 0.00 0.00 99 1014.9
20260905104520 23 130 0.0 0.0 0.00 0.00 0.00 99 1014.9
20260905104019 23 163 0.0 0.0 0.00 0.00 0.00 99 1014.7
20260905103515 23 162 0.0 0.0 0.00 0.00 0.00 99 1014.9
20260905103011 23 146 0.0 0.0 0.00 0.00 0.00 99 1014.9
20260905102507 23 140 0.0 0.0 0.00 0.00 0.00 99 1014.9
20260905102002 23 140 0.0 0.0 0.00 0.00 0.00 99 1014.9
20260905101501 23 150 0.0 0.0 0.00 0.00 0.00 99 1014.7
20260905100959 23 151 0.0 0.0 0.00 0.00 0.00 99 1014.8
20260905100455 23 151 0.0 0.0 0.00 0.00 0.00 99 1014.7
20260905095954 23 151 0.0 0.0 0.00 0.00 0.00 99 1014.6
20260905095450 23 150 0.0 0.0 0.00 0.00 0.00 99 1014.5
20260905094945 23 150 0.0 0.0 0.00 0.00 0.00 99 1014.8
20260905094440 23 150 0.0 0.0 0.00 0.00 0.00 99 1014.7
20260905093939 23 151 0.0 0.0 0.00 0.00 0.00 99 1014.6
20260905093434 23 151 0.0 0.0 0.00 0.00 0.00 99 1014.5
20260905092930 23 150 0.0 0.0 0.00 0.00 0.00 99 1014.6
20260905092425 23 143 0.0 0.0 0.00 0.00 0.00 99 1014.7
20260905091921 23 124 0.0 0.0 0.00 0.00 0.00 99 1014.7
20260905091421 23 139 0.0 0.0 0.00 0.00 0.00 99 1014.5
20260905090920 23 155 0.0 0.0 0.00 0.00 0.00 99 1014.6
20260905090415 23 170 0.0 0.0 0.00 0.00 0.00 99 1014.4
20260905085915 23 170 0.0 0.0 0.00 0.00 0.00 99 1014.5
20260905085414 23 172 0.0 0.0 0.00 0.00 0.00 99 1014.6
20260905084910 23 151 0.0 0.0 0.00 0.00 0.00 99 1014.7
20260905084409 23 151 0.0 0.0 0.00 0.00 0.00 99 1014.8
20260905083904 23 151 0.0 0.0 0.00 0.00 0.00 99 1014.7
20260905083400 23 151 0.0 0.0 0.00 0.00 0.00 99 1014.6
20260905082855 23 151 0.0 0.0 0.00 0.00 0.00 99 1014.6
20260905082352 23 154 0.0 0.0 0.00 0.00 0.00 99 1014.6
20260905081847 23 157 0.0 0.0 0.00 0.00 0.00 99 1014.3
20260905081342 23 157 0.0 0.0 0.00 0.00 0.00 98 1014.4
20260905080840 24 157 0.0 0.0 0.00 0.00 0.00 98 1014.3
20260905080335 24 157 0.0 0.0 0.00 0.00 0.00 98 1014.1
20260905075834 24 158 0.0 0.0 0.00 0.00 0.00 98 1014.0
20260905075334 24 167 0.0 0.0 0.00 0.00 0.00 98 1014.0
20260905074833 24 168 0.0 0.0 0.00 0.00 0.00 98 1013.8
20260905074329 24 164 0.0 0.0 0.00 0.00 0.00 98 1013.9
20260905073824 24 164 0.0 0.0 0.00 0.00 0.00 98 1014.0
20260905073319 24 164 0.0 0.0 0.00 0.00 0.00 98 1014.0
20260905072814 24 164 0.0 0.0 0.00 0.00 0.00 98 1014.0
20260905072309 24 164 0.0 0.0 0.00 0.00 0.00 98 1014.0
20260905071806 24 164 0.0 0.0 0.00 0.00 0.00 98 1013.9
20260905071301 24 164 0.0 0.0 0.00 0.00 0.00 98 1014.1
20260905070756 24 164 0.0 0.0 0.00 0.00 0.00 98 1014.0
20260905070253 24 164 0.0 0.0 0.00 0.00 0.00 98 1014.0
20260905065751 24 164 0.0 0.0 0.00 0.00 0.00 98 1014.2